Location: Davayat
(45.9471°N, 3.1105°E)
Time: 17:14:43
(UTC+00:00)

Lacrosse 5 rocket - Pass Details

Date: 01 December 2020
Orbit: 461 x 634 km, 57.0° (Epoch: 23 January)

Event Time Altitude Azimuth Distance (km) Brightness Sun altitude
Rises 18:21:49 0° 277° (W) 2,511 6.0 -23.2°
Reaches altitude 10° 18:24:26 10° 296° (WNW) 1,622 4.5 -23.7°
Enters shadow 18:26:46 19° 336° (NNW) 1,181 3.1 -24.1°
